Time,TemperatureF,DewpointF,PressureIn,WindDirection,WindDirectionDegrees,WindSpeedMPH,WindSpeedGustMPH,Humidity,HourlyPrecipIn,Conditions,Clouds,dailyrainin,SoftwareType,DateUTC
2013-01-09 00:00:00,30.7,26.2,30.31,WSW,238,0.0,0.0,83,0.00,,---,0.00,VWS V13.01,2013-01-09 05:00:00,
2013-01-09 00:03:00,30.7,26.2,30.31,WSW,238,0.0,0.0,83,0.00,,---,0.00,VWS V13.01,2013-01-09 05:03:00,
2013-01-09 00:08:00,30.6,26.4,30.31,WSW,238,0.0,0.0,84,0.00,,---,0.00,VWS V13.01,2013-01-09 05:08:00,
2013-01-09 00:13:00,30.9,26.6,30.30,WSW,238,0.0,0.0,84,0.00,,---,0.00,VWS V13.01,2013-01-09 05:13:00,
2013-01-09 00:18:00,30.7,26.5,30.30,WSW,238,0.0,0.0,84,0.00,,---,0.00,VWS V13.01,2013-01-09 05:18:00,
2013-01-09 00:23:00,30.7,26.5,30.30,WSW,238,0.0,0.0,84,0.00,,---,0.00,VWS V13.01,2013-01-09 05:23:00,
2013-01-09 00:28:00,31.0,26.7,30.31,WSW,238,0.0,0.0,84,0.00,,---,0.00,VWS V13.01,2013-01-09 05:28:00,
2013-01-09 00:33:00,30.7,26.5,30.31,WSW,238,0.0,0.0,84,0.00,,---,0.00,VWS V13.01,2013-01-09 05:33:00,
2013-01-09 00:38:00,30.1,25.9,30.31,WSW,238,0.0,0.0,84,0.00,,---,0.00,VWS V13.01,2013-01-09 05:38:00,
2013-01-09 00:43:00,29.8,25.6,30.31,WSW,238,0.0,0.0,84,0.00,,---,0.00,VWS V13.01,2013-01-09 05:43:00,
2013-01-09 00:48:00,29.7,25.8,30.31,WSW,238,0.0,0.0,85,0.00,,---,0.00,VWS V13.01,2013-01-09 05:48:00,
2013-01-09 00:53:00,30.0,26.3,30.31,WSW,238,0.0,0.0,86,0.00,,---,0.00,VWS V13.01,2013-01-09 05:53:00,
2013-01-09 00:58:00,29.8,26.1,30.30,WSW,238,0.0,0.0,86,0.00,,---,0.00,VWS V13.01,2013-01-09 05:58:00,
2013-01-09 01:03:00,29.8,26.1,30.30,WSW,238,0.0,0.0,86,0.00,,---,0.00,VWS V13.01,2013-01-09 06:03:00,
2013-01-09 01:08:00,29.8,26.4,30.30,WSW,238,0.0,0.0,87,0.00,,---,0.00,VWS V13.01,2013-01-09 06:08:00,
2013-01-09 01:13:00,29.8,26.4,30.30,WSW,238,0.0,0.0,87,0.00,,---,0.00,VWS V13.01,2013-01-09 06:13:00,
2013-01-09 01:18:00,29.8,26.4,30.30,WSW,238,0.0,0.0,87,0.00,,---,0.00,VWS V13.01,2013-01-09 06:18:00,
2013-01-09 01:23:00,29.8,26.4,30.30,WSW,238,0.0,0.0,87,0.00,,---,0.00,VWS V13.01,2013-01-09 06:23:00,
2013-01-09 01:28:00,29.8,26.7,30.30,WSW,238,0.0,0.0,88,0.00,,---,0.00,VWS V13.01,2013-01-09 06:28:00,
2013-01-09 01:33:00,29.8,26.7,30.30,WSW,238,0.0,2.0,88,0.00,,---,0.00,VWS V13.01,2013-01-09 06:33:00,
2013-01-09 01:38:00,29.7,26.6,30.30,WSW,238,0.0,2.0,88,0.00,,---,0.00,VWS V13.01,2013-01-09 06:38:00,
2013-01-09 01:43:00,29.5,26.4,30.30,WSW,238,0.0,0.0,88,0.00,,---,0.00,VWS V13.01,2013-01-09 06:43:00,
2013-01-09 01:48:00,29.4,26.3,30.30,WSW,238,0.0,0.0,88,0.00,,---,0.00,VWS V13.01,2013-01-09 06:48:00,
2013-01-09 01:53:00,29.1,25.7,30.30,WSW,238,0.0,0.0,87,0.00,,---,0.00,VWS V13.01,2013-01-09 06:53:00,
2013-01-09 01:58:00,28.7,25.6,30.30,WSW,238,0.0,2.0,88,0.00,,---,0.00,VWS V13.01,2013-01-09 06:58:00,
2013-01-09 02:03:00,28.4,25.3,30.30,WSW,238,0.0,2.0,88,0.00,,---,0.00,VWS V13.01,2013-01-09 07:03:00,
2013-01-09 02:08:00,28.2,25.1,30.30,WSW,238,0.0,2.0,88,0.00,,---,0.00,VWS V13.01,2013-01-09 07:08:00,
2013-01-09 02:13:00,28.2,25.1,30.30,WSW,239,0.0,0.0,88,0.00,,---,0.00,VWS V13.01,2013-01-09 07:13:00,
2013-01-09 02:18:00,28.2,25.4,30.30,WSW,238,0.0,0.0,89,0.00,,---,0.00,VWS V13.01,2013-01-09 07:18:00,
2013-01-09 02:23:00,28.7,25.9,30.30,WSW,238,0.0,2.0,89,0.00,,---,0.00,VWS V13.01,2013-01-09 07:23:00,
2013-01-09 02:28:00,28.8,26.2,30.30,WSW,238,0.0,0.0,90,0.00,,---,0.00,VWS V13.01,2013-01-09 07:28:00,
2013-01-09 02:33:00,28.8,26.0,30.30,WSW,238,1.0,1.0,89,0.00,,---,0.00,VWS V13.01,2013-01-09 07:33:00,
2013-01-09 02:38:00,29.0,26.2,30.30,WSW,238,0.0,1.0,89,0.00,,---,0.00,VWS V13.01,2013-01-09 07:38:00,
2013-01-09 02:43:00,28.8,26.0,30.30,WSW,238,0.0,0.0,89,0.00,,---,0.00,VWS V13.01,2013-01-09 07:43:00,
2013-01-09 02:48:00,28.7,25.9,30.30,WSW,238,1.0,2.0,89,0.00,,---,0.00,VWS V13.01,2013-01-09 07:48:00,
2013-01-09 02:53:00,28.4,25.6,30.30,WSW,238,0.0,2.0,89,0.00,,---,0.00,VWS V13.01,2013-01-09 07:53:00,
2013-01-09 02:58:00,28.1,25.3,30.29,WSW,238,0.0,0.0,89,0.00,,---,0.00,VWS V13.01,2013-01-09 07:58:00,
2013-01-09 03:03:00,28.1,25.3,30.29,WSW,238,0.0,0.0,89,0.00,,---,0.00,VWS V13.01,2013-01-09 08:03:00,
2013-01-09 03:08:00,28.1,25.5,30.29,WSW,238,0.0,0.0,90,0.00,,---,0.00,VWS V13.01,2013-01-09 08:08:00,
2013-01-09 03:13:00,28.1,25.3,30.29,WSW,238,0.0,0.0,89,0.00,,---,0.00,VWS V13.01,2013-01-09 08:13:00,
2013-01-09 03:18:00,28.1,25.5,30.29,WSW,238,1.0,2.0,90,0.00,,---,0.00,VWS V13.01,2013-01-09 08:18:00,
2013-01-09 03:23:00,28.1,25.3,30.29,WSW,238,0.0,2.0,89,0.00,,---,0.00,VWS V13.01,2013-01-09 08:23:00,
2013-01-09 03:28:00,28.1,25.3,30.28,WSW,238,0.0,0.0,89,0.00,,---,0.00,VWS V13.01,2013-01-09 08:28:00,
2013-01-09 03:33:00,27.9,25.1,30.28,WSW,238,0.0,0.0,89,0.00,,---,0.00,VWS V13.01,2013-01-09 08:33:00,
2013-01-09 03:38:00,27.8,25.0,30.28,WSW,238,0.0,0.0,89,0.00,,---,0.00,VWS V13.01,2013-01-09 08:38:00,
2013-01-09 03:43:00,27.5,24.7,30.28,WSW,238,0.0,0.0,89,0.00,,---,0.00,VWS V13.01,2013-01-09 08:43:00,
2013-01-09 03:48:00,27.3,24.5,30.28,WSW,238,0.0,0.0,89,0.00,,---,0.00,VWS V13.01,2013-01-09 08:48:00,
2013-01-09 03:53:00,27.3,24.5,30.28,WSW,238,0.0,0.0,89,0.00,,---,0.00,VWS V13.01,2013-01-09 08:53:00,
2013-01-09 03:58:00,27.3,24.5,30.28,WSW,238,0.0,0.0,89,0.00,,---,0.00,VWS V13.01,2013-01-09 08:58:00,
2013-01-09 04:03:00,27.2,24.4,30.28,WSW,238,0.0,0.0,89,0.00,,---,0.00,VWS V13.01,2013-01-09 09:03:00,
2013-01-09 04:08:00,27.2,24.4,30.28,WSW,238,0.0,0.0,89,0.00,,---,0.00,VWS V13.01,2013-01-09 09:08:00,
2013-01-09 04:13:00,26.9,24.1,30.27,WSW,238,0.0,0.0,89,0.00,,---,0.00,VWS V13.01,2013-01-09 09:13:00,
2013-01-09 04:18:00,26.7,23.9,30.27,WSW,238,0.0,0.0,89,0.00,,---,0.00,VWS V13.01,2013-01-09 09:18:00,
2013-01-09 04:23:00,26.6,24.1,30.27,WSW,238,0.0,0.0,90,0.00,,---,0.00,VWS V13.01,2013-01-09 09:23:00,
2013-01-09 04:28:00,26.4,23.9,30.27,WSW,238,0.0,0.0,90,0.00,,---,0.00,VWS V13.01,2013-01-09 09:28:00,
2013-01-09 04:33:00,26.6,24.1,30.27,WSW,238,0.0,0.0,90,0.00,,---,0.00,VWS V13.01,2013-01-09 09:33:00,
2013-01-09 04:38:00,26.6,24.1,30.27,WSW,238,0.0,0.0,90,0.00,,---,0.00,VWS V13.01,2013-01-09 09:38:00,
2013-01-09 04:43:00,26.6,24.1,30.27,WSW,238,0.0,0.0,90,0.00,,---,0.00,VWS V13.01,2013-01-09 09:43:00,
2013-01-09 04:48:00,26.6,24.1,30.27,WSW,238,0.0,1.0,90,0.00,,---,0.00,VWS V13.01,2013-01-09 09:48:00,
2013-01-09 04:53:00,26.3,23.8,30.27,WSW,238,0.0,1.0,90,0.00,,---,0.00,VWS V13.01,2013-01-09 09:53:00,
2013-01-09 04:58:00,26.1,23.6,30.27,WSW,238,0.0,0.0,90,0.00,,---,0.00,VWS V13.01,2013-01-09 09:58:00,
2013-01-09 05:03:00,26.1,23.8,30.27,WSW,238,0.0,0.0,91,0.00,,---,0.00,VWS V13.01,2013-01-09 10:03:00,
2013-01-09 05:08:00,26.1,23.8,30.27,WSW,238,0.0,0.0,91,0.00,,---,0.00,VWS V13.01,2013-01-09 10:08:00,
2013-01-09 05:13:00,25.8,23.3,30.27,WSW,238,0.0,0.0,90,0.00,,---,0.00,VWS V13.01,2013-01-09 10:13:00,
2013-01-09 05:18:00,25.8,23.5,30.27,WSW,238,0.0,0.0,91,0.00,,---,0.00,VWS V13.01,2013-01-09 10:18:00,
2013-01-09 05:23:00,26.3,24.3,30.27,WSW,238,1.0,2.0,92,0.00,,---,0.00,VWS V13.01,2013-01-09 10:23:00,
2013-01-09 05:28:00,26.7,24.7,30.27,WSW,238,0.0,1.0,92,0.00,,---,0.00,VWS V13.01,2013-01-09 10:28:00,
2013-01-09 05:33:00,26.4,24.1,30.27,WSW,238,0.0,1.0,91,0.00,,---,0.00,VWS V13.01,2013-01-09 10:33:00,
2013-01-09 05:38:00,25.8,23.3,30.27,WSW,238,0.0,1.0,90,0.00,,---,0.00,VWS V13.01,2013-01-09 10:38:00,
2013-01-09 05:43:00,25.6,23.3,30.27,WSW,238,0.0,0.0,91,0.00,,---,0.00,VWS V13.01,2013-01-09 10:43:00,
2013-01-09 05:48:00,25.8,23.8,30.27,WSW,238,0.0,0.0,92,0.00,,---,0.00,VWS V13.01,2013-01-09 10:48:00,
2013-01-09 05:53:00,26.0,24.0,30.27,WSW,238,0.0,0.0,92,0.00,,---,0.00,VWS V13.01,2013-01-09 10:53:00,
2013-01-09 05:58:00,26.0,23.7,30.28,WSW,238,0.0,0.0,91,0.00,,---,0.00,VWS V13.01,2013-01-09 10:58:00,
2013-01-09 06:03:00,25.8,23.5,30.28,WSW,238,0.0,0.0,91,0.00,,---,0.00,VWS V13.01,2013-01-09 11:03:00,
2013-01-09 06:08:00,25.8,23.5,30.28,WSW,238,0.0,0.0,91,0.00,,---,0.00,VWS V13.01,2013-01-09 11:08:00,
2013-01-09 06:13:00,25.3,23.0,30.28,WSW,238,0.0,0.0,91,0.00,,---,0.00,VWS V13.01,2013-01-09 11:13:00,
2013-01-09 06:18:00,25.0,22.8,30.28,WSW,238,0.0,0.0,91,0.00,,---,0.00,VWS V13.01,2013-01-09 11:18:00,
2013-01-09 06:23:00,24.8,22.5,30.28,WSW,238,0.0,0.0,91,0.00,,---,0.00,VWS V13.01,2013-01-09 11:23:00,
2013-01-09 06:28:00,25.0,23.0,30.29,WSW,238,0.0,0.0,92,0.00,,---,0.00,VWS V13.01,2013-01-09 11:28:00,
2013-01-09 06:33:00,25.4,23.4,30.29,WSW,238,0.0,0.0,92,0.00,,---,0.00,VWS V13.01,2013-01-09 11:33:00,
2013-01-09 06:38:00,25.7,23.7,30.29,WSW,238,0.0,0.0,92,0.00,,---,0.00,VWS V13.01,2013-01-09 11:38:00,
2013-01-09 06:43:00,25.6,23.6,30.28,WSW,238,0.0,0.0,92,0.00,,---,0.00,VWS V13.01,2013-01-09 11:43:00,
2013-01-09 06:48:00,25.6,23.6,30.28,WSW,238,0.0,0.0,92,0.00,,---,0.00,VWS V13.01,2013-01-09 11:48:00,
2013-01-09 06:53:00,25.7,23.7,30.28,WSW,238,0.0,0.0,92,0.00,,---,0.00,VWS V13.01,2013-01-09 11:53:00,
2013-01-09 06:58:00,25.6,23.6,30.29,WSW,238,0.0,0.0,92,0.00,,---,0.00,VWS V13.01,2013-01-09 11:58:00,
2013-01-09 07:03:00,25.4,23.4,30.29,WSW,238,0.0,0.0,92,0.00,,---,0.00,VWS V13.01,2013-01-09 12:03:00,
2013-01-09 07:08:00,25.1,23.1,30.29,WSW,238,0.0,0.0,92,0.00,,---,0.00,VWS V13.01,2013-01-09 12:08:00,
2013-01-09 07:13:00,25.4,23.4,30.29,WSW,238,0.0,0.0,92,0.00,,---,0.00,VWS V13.01,2013-01-09 12:13:00,
2013-01-09 07:18:00,25.6,23.9,30.29,WSW,238,0.0,0.0,93,0.00,,---,0.00,VWS V13.01,2013-01-09 12:18:00,
2013-01-09 07:23:00,25.7,24.0,30.29,WSW,238,0.0,0.0,93,0.00,,---,0.00,VWS V13.01,2013-01-09 12:23:00,
2013-01-09 07:28:00,25.7,23.7,30.30,WSW,238,0.0,0.0,92,0.00,,---,0.00,VWS V13.01,2013-01-09 12:28:00,
2013-01-09 07:33:00,25.7,24.0,30.30,WSW,238,0.0,0.0,93,0.00,,---,0.00,VWS V13.01,2013-01-09 12:33:00,
2013-01-09 07:38:00,25.7,24.0,30.30,WSW,238,0.0,0.0,93,0.00,,---,0.00,VWS V13.01,2013-01-09 12:38:00,
2013-01-09 07:43:00,25.7,24.0,30.29,WSW,238,0.0,0.0,93,0.00,,---,0.00,VWS V13.01,2013-01-09 12:43:00,
2013-01-09 07:48:00,26.0,24.3,30.29,WSW,238,0.0,1.0,93,0.00,,---,0.00,VWS V13.01,2013-01-09 12:48:00,
2013-01-09 07:53:00,25.8,24.1,30.29,WSW,238,0.0,1.0,93,0.00,,---,0.00,VWS V13.01,2013-01-09 12:53:00,
2013-01-09 07:58:00,25.6,23.6,30.29,WSW,238,0.0,0.0,92,0.00,,---,0.00,VWS V13.01,2013-01-09 12:58:00,
2013-01-09 08:03:00,25.6,23.9,30.29,WSW,238,0.0,0.0,93,0.00,,---,0.00,VWS V13.01,2013-01-09 13:03:00,
2013-01-09 08:08:00,25.7,24.0,30.29,WSW,238,0.0,0.0,93,0.00,,---,0.00,VWS V13.01,2013-01-09 13:08:00,
2013-01-09 08:12:00,25.8,24.1,30.29,WSW,238,0.0,0.0,93,0.00,,---,0.00,VWS V13.01,2013-01-09 13:12:00,
2013-01-09 08:17:00,26.1,24.4,30.29,WSW,238,0.0,0.0,93,0.00,,---,0.00,VWS V13.01,2013-01-09 13:17:00,
2013-01-09 08:22:00,26.3,24.6,30.29,WSW,238,0.0,0.0,93,0.00,,---,0.00,VWS V13.01,2013-01-09 13:22:00,
2013-01-09 08:27:00,26.7,25.0,30.29,WSW,238,0.0,0.0,93,0.00,,---,0.00,VWS V13.01,2013-01-09 13:27:00,
2013-01-09 08:32:00,27.2,25.5,30.29,WSW,238,0.0,0.0,93,0.00,,---,0.00,VWS V13.01,2013-01-09 13:32:00,
2013-01-09 08:37:00,27.9,26.4,30.29,WSW,238,0.0,0.0,94,0.00,,---,0.00,VWS V13.01,2013-01-09 13:37:00,
2013-01-09 08:42:00,28.5,26.7,30.30,WSW,238,0.0,0.0,93,0.00,,---,0.00,VWS V13.01,2013-01-09 13:42:00,
2013-01-09 08:47:00,29.0,27.2,30.30,WSW,238,0.0,0.0,93,0.00,,---,0.00,VWS V13.01,2013-01-09 13:47:00,
2013-01-09 08:53:00,29.4,27.6,30.30,WSW,238,0.0,0.0,93,0.00,,---,0.00,VWS V13.01,2013-01-09 13:53:00,
2013-01-09 08:57:00,30.3,28.8,30.31,WSW,238,0.0,0.0,94,0.00,,---,0.00,VWS V13.01,2013-01-09 13:57:00,
2013-01-09 09:02:00,30.7,28.7,30.31,WSW,238,0.0,0.0,92,0.00,,---,0.00,VWS V13.01,2013-01-09 14:02:00,
2013-01-09 09:07:00,30.7,28.7,30.31,WSW,238,0.0,0.0,92,0.00,,---,0.00,VWS V13.01,2013-01-09 14:07:00,
2013-01-09 09:12:00,31.0,28.7,30.31,WSW,238,0.0,0.0,91,0.00,,---,0.00,VWS V13.01,2013-01-09 14:12:00,
2013-01-09 09:17:00,31.3,29.0,30.31,WSW,238,0.0,0.0,91,0.00,,---,0.00,VWS V13.01,2013-01-09 14:17:00,
2013-01-09 09:22:00,31.6,29.3,30.31,WSW,238,0.0,0.0,91,0.00,,---,0.00,VWS V13.01,2013-01-09 14:22:00,
2013-01-09 09:27:00,32.1,29.5,30.30,WSW,238,0.0,0.0,90,0.00,,---,0.00,VWS V13.01,2013-01-09 14:27:00,
2013-01-09 09:33:00,32.4,29.8,30.30,WSW,238,0.0,0.0,90,0.00,,---,0.00,VWS V13.01,2013-01-09 14:33:00,
2013-01-09 09:37:00,32.4,29.5,30.30,WSW,238,0.0,0.0,89,0.00,,---,0.00,VWS V13.01,2013-01-09 14:37:00,
2013-01-09 09:43:00,32.2,29.0,30.28,SW,236,0.0,0.0,88,0.00,,---,0.00,VWS V13.01,2013-01-09 14:43:00,
2013-01-09 09:48:00,32.2,29.0,30.28,SW,236,0.0,0.0,88,0.00,,---,0.00,VWS V13.01,2013-01-09 14:48:00,
2013-01-09 09:52:00,32.7,29.8,30.28,SW,236,0.0,0.0,89,0.00,,---,0.00,VWS V13.01,2013-01-09 14:52:00,
2013-01-09 09:57:00,33.2,30.3,30.28,SW,236,0.0,0.0,89,0.00,,---,0.00,VWS V13.01,2013-01-09 14:57:00,
2013-01-09 10:02:00,33.8,30.9,30.28,SW,236,0.0,0.0,89,0.00,,---,0.00,VWS V13.01,2013-01-09 15:02:00,
2013-01-09 10:07:00,34.6,31.4,30.28,SW,236,0.0,0.0,88,0.00,,---,0.00,VWS V13.01,2013-01-09 15:07:00,
2013-01-09 10:12:00,34.9,31.4,30.26,SW,236,0.0,0.0,87,0.00,,---,0.00,VWS V13.01,2013-01-09 15:12:00,
2013-01-09 10:17:00,35.3,31.5,30.26,SW,236,0.0,0.0,86,0.00,,---,0.00,VWS V13.01,2013-01-09 15:17:00,
2013-01-09 10:22:00,35.8,31.5,30.26,SW,236,0.0,0.0,84,0.00,,---,0.00,VWS V13.01,2013-01-09 15:22:00,
2013-01-09 10:27:00,35.8,31.5,30.25,SW,236,0.0,0.0,84,0.00,,---,0.00,VWS V13.01,2013-01-09 15:27:00,
2013-01-09 10:32:00,35.9,31.5,30.25,SW,236,0.0,0.0,84,0.00,,---,0.00,VWS V13.01,2013-01-09 15:32:00,
2013-01-09 10:37:00,36.0,31.6,30.25,WSW,238,0.0,0.0,84,0.00,,---,0.00,VWS V13.01,2013-01-09 15:37:00,
2013-01-09 10:42:00,36.5,32.1,30.25,WSW,258,3.0,4.0,84,0.00,,---,0.00,VWS V13.01,2013-01-09 15:42:00,
2013-01-09 10:47:00,36.6,31.9,30.25,WSW,258,0.0,4.0,83,0.00,,---,0.00,VWS V13.01,2013-01-09 15:47:00,
2013-01-09 10:52:00,36.8,31.5,30.25,West,259,1.0,5.0,81,0.00,,---,0.00,VWS V13.01,2013-01-09 15:52:00,
2013-01-09 10:57:00,37.0,31.7,30.25,West,259,3.0,3.0,81,0.00,,---,0.00,VWS V13.01,2013-01-09 15:57:00,
2013-01-09 11:02:00,37.2,31.6,30.25,West,259,0.0,3.0,80,0.00,,---,0.00,VWS V13.01,2013-01-09 16:02:00,
2013-01-09 11:07:00,37.6,32.0,30.25,West,259,0.0,3.0,80,0.00,,---,0.00,VWS V13.01,2013-01-09 16:07:00,
2013-01-09 11:12:00,37.9,32.3,30.24,West,259,0.0,0.0,80,0.00,,---,0.00,VWS V13.01,2013-01-09 16:12:00,
2013-01-09 11:17:00,38.2,32.0,30.24,West,259,0.0,0.0,78,0.00,,---,0.00,VWS V13.01,2013-01-09 16:17:00,
2013-01-09 11:22:00,38.5,32.6,30.24,West,259,0.0,0.0,79,0.00,,---,0.00,VWS V13.01,2013-01-09 16:22:00,
2013-01-09 11:27:00,38.6,32.3,30.23,West,259,0.0,0.0,78,0.00,,---,0.00,VWS V13.01,2013-01-09 16:27:00,
2013-01-09 11:32:00,38.8,32.5,30.23,West,259,0.0,0.0,78,0.00,,---,0.00,VWS V13.01,2013-01-09 16:32:00,
2013-01-09 11:37:00,39.2,32.6,30.23,West,259,0.0,0.0,77,0.00,,---,0.00,VWS V13.01,2013-01-09 16:37:00,
2013-01-09 11:42:00,39.5,32.9,30.21,West,259,0.0,0.0,77,0.00,,---,0.00,VWS V13.01,2013-01-09 16:42:00,
2013-01-09 11:47:00,39.6,32.7,30.21,West,259,0.0,0.0,76,0.00,,---,0.00,VWS V13.01,2013-01-09 16:47:00,
2013-01-09 11:52:00,39.9,33.0,30.21,West,259,0.0,0.0,76,0.00,,---,0.00,VWS V13.01,2013-01-09 16:52:00,
2013-01-09 11:57:00,40.2,33.2,30.20,West,259,0.0,0.0,76,0.00,,---,0.00,VWS V13.01,2013-01-09 16:57:00,
2013-01-09 12:02:00,40.2,32.9,30.20,West,259,0.0,0.0,75,0.00,,---,0.00,VWS V13.01,2013-01-09 17:02:00,
2013-01-09 12:07:00,40.2,33.2,30.20,West,259,0.0,3.0,76,0.00,,---,0.00,VWS V13.01,2013-01-09 17:07:00,
2013-01-09 12:12:00,40.2,33.2,30.20,West,259,0.0,0.0,76,0.00,,---,0.00,VWS V13.01,2013-01-09 17:12:00,
2013-01-09 12:17:00,40.5,33.5,30.20,West,259,0.0,0.0,76,0.00,,---,0.00,VWS V13.01,2013-01-09 17:17:00,
2013-01-09 12:22:00,40.5,33.2,30.20,West,259,0.0,0.0,75,0.00,,---,0.00,VWS V13.01,2013-01-09 17:22:00,
2013-01-09 12:27:00,40.6,33.3,30.19,West,259,0.0,0.0,75,0.00,,---,0.00,VWS V13.01,2013-01-09 17:27:00,
2013-01-09 12:32:00,40.8,33.5,30.19,West,259,0.0,0.0,75,0.00,,---,0.00,VWS V13.01,2013-01-09 17:32:00,
2013-01-09 12:37:00,40.8,33.5,30.19,West,259,0.0,0.0,75,0.00,,---,0.00,VWS V13.01,2013-01-09 17:37:00,
2013-01-09 12:42:00,41.1,33.8,30.19,West,259,0.0,0.0,75,0.00,,---,0.00,VWS V13.01,2013-01-09 17:42:00,
2013-01-09 12:47:00,41.2,33.9,30.19,WSW,257,0.0,3.0,75,0.00,,---,0.00,VWS V13.01,2013-01-09 17:47:00,
2013-01-09 12:52:00,41.3,34.0,30.19,WSW,257,0.0,3.0,75,0.00,,---,0.00,VWS V13.01,2013-01-09 17:52:00,
2013-01-09 12:57:00,41.6,33.9,30.18,West,261,1.0,3.0,74,0.00,,---,0.00,VWS V13.01,2013-01-09 17:57:00,
2013-01-09 13:02:00,41.8,34.1,30.18,West,265,2.0,5.0,74,0.00,,---,0.00,VWS V13.01,2013-01-09 18:02:00,
2013-01-09 13:07:00,41.9,34.2,30.18,West,269,0.0,6.0,74,0.00,,---,0.00,VWS V13.01,2013-01-09 18:07:00,
2013-01-09 13:12:00,42.2,34.2,30.18,West,269,3.0,4.0,73,0.00,,---,0.00,VWS V13.01,2013-01-09 18:12:00,
2013-01-09 13:17:00,42.6,34.6,30.18,West,269,3.0,4.0,73,0.00,,---,0.00,VWS V13.01,2013-01-09 18:17:00,
2013-01-09 13:22:00,42.9,34.5,30.18,West,273,0.0,5.0,72,0.00,,---,0.00,VWS V13.01,2013-01-09 18:22:00,
2013-01-09 13:27:00,43.3,34.5,30.18,West,273,3.0,4.0,71,0.00,,---,0.00,VWS V13.01,2013-01-09 18:27:00,
2013-01-09 13:32:00,43.8,34.7,30.18,West,273,4.0,5.0,70,0.00,,---,0.00,VWS V13.01,2013-01-09 18:32:00,
2013-01-09 13:37:00,44.2,35.0,30.18,WNW,286,3.0,6.0,70,0.00,,---,0.00,VWS V13.01,2013-01-09 18:37:00,
2013-01-09 13:41:00,44.5,35.3,30.18,West,267,5.0,5.0,70,0.00,,---,0.00,VWS V13.01,2013-01-09 18:41:00,
2013-01-09 13:44:00,44.8,35.3,30.18,WNW,283,1.0,7.0,69,0.00,,---,0.00,VWS V13.01,2013-01-09 18:44:00,
2013-01-09 13:45:00,44.9,35.4,30.18,West,281,1.0,7.0,69,0.00,,---,0.00,VWS V13.01,2013-01-09 18:45:00,
2013-01-09 13:48:00,45.2,35.7,30.18,West,281,3.0,7.0,69,0.00,,---,0.00,VWS V13.01,2013-01-09 18:48:00,
2013-01-09 13:53:00,45.5,35.2,30.18,WNW,291,5.0,7.0,67,0.00,,---,0.00,VWS V13.01,2013-01-09 18:53:00,
2013-01-09 13:58:00,45.5,35.6,30.18,SW,229,4.0,5.0,68,0.00,,---,0.00,VWS V13.01,2013-01-09 18:58:00,
2013-01-09 14:03:00,45.7,35.8,30.18,SW,217,6.0,6.0,68,0.00,,---,0.00,VWS V13.01,2013-01-09 19:03:00,
2013-01-09 14:08:00,45.8,36.2,30.18,SW,231,0.0,9.0,69,0.00,,---,0.00,VWS V13.01,2013-01-09 19:08:00,
2013-01-09 14:13:00,46.1,36.5,30.13,SSW,211,4.0,6.0,69,0.00,,---,0.00,VWS V13.01,2013-01-09 19:13:00,
2013-01-09 14:18:00,46.2,36.6,30.13,SSW,198,5.0,11.0,69,0.00,,---,0.00,VWS V13.01,2013-01-09 19:18:00,
2013-01-09 14:23:00,46.2,36.6,30.13,SSW,209,4.0,11.0,69,0.00,,---,0.00,VWS V13.01,2013-01-09 19:23:00,
2013-01-09 14:28:00,46.5,36.5,30.09,SSW,207,4.0,9.0,68,0.00,,---,0.00,VWS V13.01,2013-01-09 19:28:00,
2013-01-09 14:33:00,47.0,37.0,30.09,South,186,5.0,10.0,68,0.00,,---,0.00,VWS V13.01,2013-01-09 19:33:00,
2013-01-09 14:38:00,47.4,37.0,30.09,SW,221,2.0,10.0,67,0.00,,---,0.00,VWS V13.01,2013-01-09 19:38:00,
2013-01-09 14:43:00,47.6,36.4,30.07,WSW,250,3.0,7.0,65,0.00,,---,0.00,VWS V13.01,2013-01-09 19:43:00,
2013-01-09 14:48:00,47.9,36.7,30.07,WNW,300,4.0,10.0,65,0.00,,---,0.00,VWS V13.01,2013-01-09 19:48:00,
2013-01-09 14:53:00,47.9,36.7,30.07,West,267,2.0,10.0,65,0.00,,---,0.00,VWS V13.01,2013-01-09 19:53:00,
2013-01-09 14:58:00,48.0,36.4,30.08,WNW,296,2.0,9.0,64,0.00,,---,0.00,VWS V13.01,2013-01-09 19:58:00,
2013-01-09 15:03:00,48.0,36.4,30.08,NW,308,3.0,10.0,64,0.00,,---,0.00,VWS V13.01,2013-01-09 20:03:00,
2013-01-09 15:08:00,48.0,36.8,30.08,WSW,254,2.0,10.0,65,0.00,,---,0.00,VWS V13.01,2013-01-09 20:08:00,
2013-01-09 15:13:00,48.0,36.4,30.07,West,265,2.0,5.0,64,0.00,,---,0.00,VWS V13.01,2013-01-09 20:13:00,
2013-01-09 15:18:00,48.0,36.4,30.07,West,259,1.0,5.0,64,0.00,,---,0.00,VWS V13.01,2013-01-09 20:18:00,
2013-01-09 15:23:00,48.2,36.6,30.07,West,262,0.0,5.0,64,0.00,,---,0.00,VWS V13.01,2013-01-09 20:23:00,
2013-01-09 15:28:00,48.2,37.0,30.08,West,263,0.0,4.0,65,0.00,,---,0.00,VWS V13.01,2013-01-09 20:28:00,
2013-01-09 15:33:00,48.2,37.0,30.08,West,273,3.0,10.0,65,0.00,,---,0.00,VWS V13.01,2013-01-09 20:33:00,
2013-01-09 15:38:00,48.2,37.0,30.08,SW,218,5.0,10.0,65,0.00,,---,0.00,VWS V13.01,2013-01-09 20:38:00,
2013-01-09 15:43:00,48.2,37.0,30.07,SW,219,2.0,4.0,65,0.00,,---,0.00,VWS V13.01,2013-01-09 20:43:00,
2013-01-09 15:48:00,48.2,36.6,30.07,SW,225,2.0,5.0,64,0.00,,---,0.00,VWS V13.01,2013-01-09 20:48:00,
2013-01-09 15:53:00,48.2,37.0,30.07,WSW,246,0.0,6.0,65,0.00,,---,0.00,VWS V13.01,2013-01-09 20:53:00,
2013-01-09 15:58:00,48.0,36.8,30.07,WSW,244,0.0,3.0,65,0.00,,---,0.00,VWS V13.01,2013-01-09 20:58:00,
2013-01-09 16:03:00,48.0,36.8,30.07,WSW,246,0.0,3.0,65,0.00,,---,0.00,VWS V13.01,2013-01-09 21:03:00,
2013-01-09 16:08:00,47.9,36.7,30.07,WSW,244,0.0,4.0,65,0.00,,---,0.00,VWS V13.01,2013-01-09 21:08:00,
2013-01-09 16:13:00,47.9,36.7,30.07,WSW,244,0.0,4.0,65,0.00,,---,0.00,VWS V13.01,2013-01-09 21:13:00,
2013-01-09 16:18:00,47.9,36.7,30.07,WSW,247,2.0,5.0,65,0.00,,---,0.00,VWS V13.01,2013-01-09 21:18:00,
2013-01-09 16:23:00,47.9,36.7,30.07,West,267,0.0,5.0,65,0.00,,---,0.00,VWS V13.01,2013-01-09 21:23:00,
2013-01-09 16:28:00,47.9,36.7,30.08,West,281,2.0,5.0,65,0.00,,---,0.00,VWS V13.01,2013-01-09 21:28:00,
2013-01-09 16:33:00,47.9,36.7,30.08,West,276,0.0,7.0,65,0.00,,---,0.00,VWS V13.01,2013-01-09 21:33:00,
2013-01-09 16:38:00,47.7,36.5,30.08,WNW,288,5.0,7.0,65,0.00,,---,0.00,VWS V13.01,2013-01-09 21:38:00,
2013-01-09 16:43:00,47.7,36.5,30.09,WNW,287,1.0,6.0,65,0.00,,---,0.00,VWS V13.01,2013-01-09 21:43:00,
2013-01-09 16:48:00,47.7,36.5,30.09,WNW,285,3.0,9.0,65,0.00,,---,0.00,VWS V13.01,2013-01-09 21:48:00,
2013-01-09 16:53:00,47.7,36.5,30.09,WNW,284,4.0,9.0,65,0.00,,---,0.00,VWS V13.01,2013-01-09 21:53:00,
2013-01-09 16:58:00,47.7,36.9,30.09,WNW,284,0.0,4.0,66,0.00,,---,0.00,VWS V13.01,2013-01-09 21:58:00,
2013-01-09 17:03:00,47.6,36.8,30.09,West,277,3.0,7.0,66,0.00,,---,0.00,VWS V13.01,2013-01-09 22:03:00,
2013-01-09 17:08:00,47.6,36.8,30.09,West,281,5.0,7.0,66,0.00,,---,0.00,VWS V13.01,2013-01-09 22:08:00,
2013-01-09 17:13:00,47.6,36.8,30.10,WNW,282,3.0,5.0,66,0.00,,---,0.00,VWS V13.01,2013-01-09 22:13:00,
2013-01-09 17:18:00,47.6,36.8,30.10,WNW,286,3.0,5.0,66,0.00,,---,0.00,VWS V13.01,2013-01-09 22:18:00,
2013-01-09 17:23:00,47.6,36.4,30.10,WNW,288,0.0,6.0,65,0.00,,---,0.00,VWS V13.01,2013-01-09 22:23:00,
2013-01-09 17:28:00,47.7,36.5,30.10,WNW,288,3.0,6.0,65,0.00,,---,0.00,VWS V13.01,2013-01-09 22:28:00,
2013-01-09 17:33:00,47.9,36.3,30.10,WNW,290,7.0,7.0,64,0.00,,---,0.00,VWS V13.01,2013-01-09 22:33:00,
2013-01-09 17:38:00,47.9,36.3,30.10,WNW,292,5.0,7.0,64,0.00,,---,0.00,VWS V13.01,2013-01-09 22:38:00,
2013-01-09 17:43:00,48.0,36.4,30.11,West,279,7.0,10.0,64,0.00,,---,0.00,VWS V13.01,2013-01-09 22:43:00,
2013-01-09 17:48:00,47.9,36.3,30.11,WSW,244,5.0,11.0,64,0.00,,---,0.00,VWS V13.01,2013-01-09 22:48:00,
2013-01-09 17:53:00,47.7,36.5,30.11,West,281,3.0,11.0,65,0.00,,---,0.00,VWS V13.01,2013-01-09 22:53:00,
2013-01-09 17:58:00,47.4,36.2,30.12,WNW,286,1.0,9.0,65,0.00,,---,0.00,VWS V13.01,2013-01-09 22:58:00,
2013-01-09 18:03:00,47.3,36.2,30.12,WNW,286,7.0,9.0,65,0.00,,---,0.00,VWS V13.01,2013-01-09 23:03:00,
2013-01-09 18:08:00,47.0,36.2,30.12,West,280,2.0,9.0,66,0.00,,---,0.00,VWS V13.01,2013-01-09 23:08:00,
2013-01-09 18:13:00,46.7,36.3,30.11,WNW,284,4.0,6.0,67,0.00,,---,0.00,VWS V13.01,2013-01-09 23:13:00,
2013-01-09 18:18:00,46.5,36.2,30.11,WNW,287,4.0,10.0,67,0.00,,---,0.00,VWS V13.01,2013-01-09 23:18:00,
2013-01-09 18:23:00,46.2,36.2,30.11,West,280,3.0,10.0,68,0.00,,---,0.00,VWS V13.01,2013-01-09 23:23:00,
2013-01-09 18:28:00,46.1,36.1,30.11,WNW,302,5.0,9.0,68,0.00,,---,0.00,VWS V13.01,2013-01-09 23:28:00,
2013-01-09 18:33:00,45.8,36.2,30.11,West,277,3.0,9.0,69,0.00,,---,0.00,VWS V13.01,2013-01-09 23:33:00,
2013-01-09 18:38:00,45.7,36.1,30.11,West,264,1.0,9.0,69,0.00,,---,0.00,VWS V13.01,2013-01-09 23:38:00,
2013-01-09 18:43:00,45.7,36.1,30.12,West,277,2.0,7.0,69,0.00,,---,0.00,VWS V13.01,2013-01-09 23:43:00,
2013-01-09 18:48:00,45.4,35.8,30.12,WNW,290,4.0,7.0,69,0.00,,---,0.00,VWS V13.01,2013-01-09 23:48:00,
2013-01-09 18:53:00,45.4,36.2,30.12,West,271,4.0,10.0,70,0.00,,---,0.00,VWS V13.01,2013-01-09 23:53:00,
2013-01-09 18:58:00,45.1,35.9,30.13,West,278,1.0,6.0,70,0.00,,---,0.00,VWS V13.01,2013-01-09 23:58:00,
2013-01-09 19:03:00,45.1,35.9,30.13,West,264,6.0,9.0,70,0.00,,---,0.00,VWS V13.01,2013-01-10 00:03:00,
2013-01-09 19:08:00,45.1,36.3,30.13,WSW,254,6.0,9.0,71,0.00,,---,0.00,VWS V13.01,2013-01-10 00:08:00,
2013-01-09 19:13:00,44.9,36.1,30.13,SW,234,2.0,7.0,71,0.00,,---,0.00,VWS V13.01,2013-01-10 00:13:00,
2013-01-09 19:18:00,44.8,36.0,30.13,WNW,292,5.0,10.0,71,0.00,,---,0.00,VWS V13.01,2013-01-10 00:18:00,
2013-01-09 19:23:00,44.6,35.8,30.13,WNW,296,4.0,11.0,71,0.00,,---,0.00,VWS V13.01,2013-01-10 00:23:00,
2013-01-09 19:28:00,44.5,36.0,30.13,WNW,285,2.0,7.0,72,0.00,,---,0.00,VWS V13.01,2013-01-10 00:28:00,
2013-01-09 19:33:00,44.2,35.8,30.13,WNW,284,1.0,7.0,72,0.00,,---,0.00,VWS V13.01,2013-01-10 00:33:00,
2013-01-09 19:38:00,44.2,35.8,30.13,WNW,295,3.0,9.0,72,0.00,,---,0.00,VWS V13.01,2013-01-10 00:38:00,
2013-01-09 19:43:00,44.1,36.0,30.14,West,271,1.0,4.0,73,0.00,,---,0.00,VWS V13.01,2013-01-10 00:43:00,
2013-01-09 19:48:00,43.8,35.7,30.14,West,269,1.0,4.0,73,0.00,,---,0.00,VWS V13.01,2013-01-10 00:48:00,
2013-01-09 19:53:00,43.5,35.8,30.14,West,265,1.0,4.0,74,0.00,,---,0.00,VWS V13.01,2013-01-10 00:53:00,
2013-01-09 19:58:00,43.3,35.6,30.15,West,266,0.0,2.0,74,0.00,,---,0.00,VWS V13.01,2013-01-10 00:58:00,
2013-01-09 20:03:00,43.2,35.8,30.15,West,264,0.0,2.0,75,0.00,,---,0.00,VWS V13.01,2013-01-10 01:03:00,
2013-01-09 20:08:00,42.9,35.5,30.15,West,261,0.0,3.0,75,0.00,,---,0.00,VWS V13.01,2013-01-10 01:08:00,
2013-01-09 20:13:00,42.8,35.8,30.14,WSW,246,0.0,4.0,76,0.00,,---,0.00,VWS V13.01,2013-01-10 01:13:00,
2013-01-09 20:18:00,42.8,35.8,30.14,WSW,246,0.0,4.0,76,0.00,,---,0.00,VWS V13.01,2013-01-10 01:18:00,
2013-01-09 20:23:00,42.8,36.1,30.14,West,280,1.0,5.0,77,0.00,,---,0.00,VWS V13.01,2013-01-10 01:23:00,
2013-01-09 20:28:00,42.6,35.6,30.14,West,280,0.0,2.0,76,0.00,,---,0.00,VWS V13.01,2013-01-10 01:28:00,
2013-01-09 20:33:00,42.8,36.1,30.14,West,280,0.0,3.0,77,0.00,,---,0.00,VWS V13.01,2013-01-10 01:33:00,
2013-01-09 20:38:00,42.8,36.1,30.14,West,280,0.0,3.0,77,0.00,,---,0.00,VWS V13.01,2013-01-10 01:38:00,
2013-01-09 20:43:00,42.6,35.9,30.15,SW,217,0.0,5.0,77,0.00,,---,0.00,VWS V13.01,2013-01-10 01:43:00,
2013-01-09 20:48:00,42.6,35.9,30.15,SW,220,0.0,5.0,77,0.00,,---,0.00,VWS V13.01,2013-01-10 01:48:00,
2013-01-09 20:53:00,42.6,35.6,30.15,SW,221,0.0,5.0,76,0.00,,---,0.00,VWS V13.01,2013-01-10 01:53:00,
2013-01-09 20:58:00,42.6,35.9,30.15,SW,221,0.0,3.0,77,0.00,,---,0.00,VWS V13.01,2013-01-10 01:58:00,
2013-01-09 21:03:00,42.5,35.8,30.15,SW,221,0.0,3.0,77,0.00,,---,0.00,VWS V13.01,2013-01-10 02:03:00,
2013-01-09 21:08:00,42.2,35.5,30.15,SW,221,0.0,3.0,77,0.00,,---,0.00,VWS V13.01,2013-01-10 02:08:00,
2013-01-09 21:13:00,42.2,35.5,30.14,SW,221,1.0,3.0,77,0.00,,---,0.00,VWS V13.01,2013-01-10 02:13:00,
2013-01-09 21:18:00,42.3,35.6,30.14,SW,221,0.0,3.0,77,0.00,,---,0.00,VWS V13.01,2013-01-10 02:18:00,
2013-01-09 21:23:00,41.9,35.2,30.14,SW,221,0.0,3.0,77,0.00,,---,0.00,VWS V13.01,2013-01-10 02:23:00,
2013-01-09 21:28:00,41.6,35.3,30.15,SW,221,0.0,0.0,78,0.00,,---,0.00,VWS V13.01,2013-01-10 02:28:00,
2013-01-09 21:33:00,41.6,35.3,30.15,SW,236,2.0,3.0,78,0.00,,---,0.00,VWS V13.01,2013-01-10 02:33:00,
2013-01-09 21:38:00,41.5,35.2,30.15,SW,236,2.0,3.0,78,0.00,,---,0.00,VWS V13.01,2013-01-10 02:38:00,
2013-01-09 21:43:00,41.3,35.0,30.15,SW,236,0.0,0.0,78,0.00,,---,0.00,VWS V13.01,2013-01-10 02:43:00,
2013-01-09 21:48:00,41.2,35.2,30.15,SW,236,3.0,4.0,79,0.00,,---,0.00,VWS V13.01,2013-01-10 02:48:00,
2013-01-09 21:53:00,41.2,35.2,30.15,SW,236,1.0,4.0,79,0.00,,---,0.00,VWS V13.01,2013-01-10 02:53:00,
2013-01-09 21:58:00,41.1,34.8,30.15,SW,236,0.0,2.0,78,0.00,,---,0.00,VWS V13.01,2013-01-10 02:58:00,
2013-01-09 22:03:00,41.1,34.8,30.15,SW,236,0.0,3.0,78,0.00,,---,0.00,VWS V13.01,2013-01-10 03:03:00,
2013-01-09 22:08:00,41.2,34.5,30.15,SW,229,0.0,3.0,77,0.00,,---,0.00,VWS V13.01,2013-01-10 03:08:00,
2013-01-09 22:13:00,41.2,34.2,30.15,SW,229,1.0,3.0,76,0.00,,---,0.00,VWS V13.01,2013-01-10 03:13:00,
2013-01-09 22:18:00,41.3,34.0,30.15,SW,229,3.0,5.0,75,0.00,,---,0.00,VWS V13.01,2013-01-10 03:18:00,
2013-01-09 22:23:00,41.6,33.9,30.15,SW,232,0.0,5.0,74,0.00,,---,0.00,VWS V13.01,2013-01-10 03:23:00,
2013-01-09 22:28:00,42.1,33.7,30.15,WNW,284,3.0,4.0,72,0.00,,---,0.00,VWS V13.01,2013-01-10 03:28:00,
2013-01-09 22:33:00,42.6,33.5,30.15,West,281,3.0,7.0,70,0.00,,---,0.00,VWS V13.01,2013-01-10 03:33:00,
2013-01-09 22:38:00,43.1,33.6,30.15,West,273,1.0,7.0,69,0.00,,---,0.00,VWS V13.01,2013-01-10 03:38:00,
2013-01-09 22:43:00,43.2,33.4,30.15,West,280,2.0,4.0,68,0.00,,---,0.00,VWS V13.01,2013-01-10 03:43:00,
2013-01-09 22:48:00,43.2,33.4,30.15,WNW,294,4.0,7.0,68,0.00,,---,0.00,VWS V13.01,2013-01-10 03:48:00,
2013-01-09 22:53:00,43.3,33.1,30.15,West,259,2.0,7.0,67,0.00,,---,0.00,VWS V13.01,2013-01-10 03:53:00,
2013-01-09 22:58:00,43.3,33.1,30.15,West,279,3.0,6.0,67,0.00,,---,0.00,VWS V13.01,2013-01-10 03:58:00,
2013-01-09 23:03:00,43.2,33.0,30.15,West,281,3.0,6.0,67,0.00,,---,0.00,VWS V13.01,2013-01-10 04:03:00,
2013-01-09 23:08:00,43.2,33.0,30.15,West,270,0.0,6.0,67,0.00,,---,0.00,VWS V13.01,2013-01-10 04:08:00,
2013-01-09 23:13:00,43.1,32.9,30.16,WNW,292,2.0,4.0,67,0.00,,---,0.00,VWS V13.01,2013-01-10 04:13:00,
2013-01-09 23:18:00,42.8,32.6,30.16,WSW,254,2.0,4.0,67,0.00,,---,0.00,VWS V13.01,2013-01-10 04:18:00,
2013-01-09 23:23:00,42.6,32.4,30.16,WNW,292,1.0,6.0,67,0.00,,---,0.00,VWS V13.01,2013-01-10 04:23:00,
2013-01-09 23:28:00,42.5,32.3,30.16,West,261,0.0,4.0,67,0.00,,---,0.00,VWS V13.01,2013-01-10 04:28:00,
2013-01-09 23:33:00,42.3,32.1,30.16,West,276,5.0,5.0,67,0.00,,---,0.00,VWS V13.01,2013-01-10 04:33:00,
2013-01-09 23:38:00,42.5,32.0,30.16,West,280,4.0,9.0,66,0.00,,---,0.00,VWS V13.01,2013-01-10 04:38:00,
2013-01-09 23:43:00,42.8,31.9,30.17,WNW,291,2.0,7.0,65,0.00,,---,0.00,VWS V13.01,2013-01-10 04:43:00,
2013-01-09 23:48:00,42.8,31.5,30.17,WNW,289,4.0,7.0,64,0.00,,---,0.00,VWS V13.01,2013-01-10 04:48:00,
2013-01-09 23:53:00,42.8,31.1,30.17,West,281,2.0,7.0,63,0.00,,---,0.00,VWS V13.01,2013-01-10 04:53:00,
2013-01-09 23:58:00,42.8,31.1,30.18,West,277,0.0,5.0,63,0.00,,---,0.00,VWS V13.01,2013-01-10 04:58:00,